| time (UTC) | temp C | wind direction | speed KPH | gust KPH | rain 1hr cm | rain 24hr cm | rain mn cm | humidity % | barometer mb |
| 20260906032146 | 22 | 346 | 3.2 | 4.8 | 0.00 | 1.19 | 1.19 | 99 | 1013.2 |
| 20260906031641 | 22 | 349 | 0.0 | 1.6 | 0.00 | 1.19 | 1.19 | 99 | 1012.7 |
| 20260906031137 | 22 | 37 | 0.0 | 0.0 | 0.00 | 1.19 | 1.19 | 99 | 1013.1 |
| 20260906030636 | 22 | 282 | 0.0 | 0.0 | 0.00 | 1.19 | 1.19 | 99 | 1012.8 |
| 20260906030131 | 22 | 142 | 0.0 | 1.6 | 0.00 | 1.19 | 1.19 | 99 | 1012.9 |
| 20260906025630 | 22 | 212 | 0.0 | 3.2 | 0.00 | 1.19 | 1.19 | 99 | 1013.1 |
| 20260906025130 | 22 | 215 | 1.6 | 1.6 | 0.00 | 1.19 | 1.19 | 99 | 1012.7 |
| 20260906024625 | 22 | 44 | 0.0 | 0.0 | 0.00 | 1.19 | 1.19 | 98 | 1012.8 |
| 20260906024119 | 22 | 44 | 0.0 | 0.0 | 0.00 | 1.19 | 1.19 | 98 | 1012.7 |
| 20260906023615 | 22 | 21 | 0.0 | 1.6 | 0.00 | 1.19 | 1.19 | 98 | 1012.7 |
| 20260906023109 | 22 | 322 | 0.0 | 1.6 | 0.00 | 1.19 | 1.19 | 98 | 1012.7 |
| 20260906022604 | 22 | 328 | 0.0 | 0.0 | 0.00 | 1.19 | 1.19 | 98 | 1012.5 |
| 20260906022100 | 22 | 218 | 0.0 | 3.2 | 0.00 | 1.19 | 1.19 | 98 | 1012.3 |
| 20260906021556 | 22 | 142 | 0.0 | 0.0 | 0.00 | 1.19 | 1.19 | 98 | 1012.0 |
| 20260906021054 | 22 | 52 | 1.6 | 3.2 | 0.00 | 1.19 | 1.19 | 98 | 1011.9 |
| 20260906020554 | 22 | 63 | 1.6 | 3.2 | 0.00 | 1.19 | 1.19 | 98 | 1011.9 |
| 20260906020054 | 22 | 89 | 0.0 | 3.2 | 0.00 | 1.19 | 1.19 | 98 | 1012.2 |
| 20260906015554 | 23 | 37 | 0.0 | 3.2 | 0.00 | 1.19 | 1.19 | 98 | 1012.0 |
| 20260906015053 | 23 | 21 | 1.6 | 3.2 | 0.00 | 1.19 | 1.19 | 98 | 1012.2 |
| 20260906014548 | 23 | 242 | 0.0 | 0.0 | 0.00 | 1.19 | 1.19 | 98 | 1012.0 |
| 20260906014044 | 23 | 117 | 0.0 | 0.0 | 0.00 | 1.19 | 1.19 | 98 | 1012.3 |
| 20260906013539 | 23 | 62 | 0.0 | 3.2 | 0.00 | 1.19 | 1.19 | 98 | 1012.1 |
| 20260906013034 | 23 | 60 | 0.0 | 1.6 | 0.00 | 1.19 | 1.19 | 98 | 1012.1 |
| 20260906012530 | 23 | 355 | 0.0 | 1.6 | 0.00 | 1.19 | 1.19 | 97 | 1012.1 |
| 20260906012029 | 23 | 308 | 0.0 | 1.6 | 0.00 | 1.19 | 1.19 | 97 | 1012.0 |
| 20260906011525 | 23 | 7 | 1.6 | 1.6 | 0.00 | 1.19 | 1.19 | 97 | 1011.9 |
| 20260906011025 | 23 | 205 | 0.0 | 0.0 | 0.00 | 1.19 | 1.19 | 97 | 1011.7 |
| 20260906010520 | 23 | 205 | 0.0 | 0.0 | 0.00 | 1.19 | 1.19 | 97 | 1011.6 |
| 20260906010017 | 23 | 226 | 0.0 | 1.6 | 0.00 | 1.19 | 1.19 | 97 | 1011.6 |
| 20260906005516 | 23 | 180 | 0.0 | 1.6 | 0.00 | 1.19 | 1.19 | 97 | 1012.0 |
| 20260906005015 | 23 | 50 | 0.0 | 0.0 | 0.00 | 1.19 | 1.19 | 97 | 1011.6 |
| 20260906004514 | 23 | 44 | 0.0 | 1.6 | 0.00 | 1.19 | 1.19 | 97 | 1011.6 |
| 20260906004009 | 23 | 334 | 1.6 | 3.2 | 0.00 | 1.19 | 1.19 | 97 | 1011.7 |
| 20260906003504 | 23 | 25 | 0.0 | 3.2 | 0.00 | 1.19 | 1.19 | 97 | 1011.7 |
| 20260906003001 | 23 | 341 | 1.6 | 1.6 | 0.00 | 1.19 | 1.19 | 97 | 1011.6 |
| 20260906002501 | 23 | 37 | 0.0 | 3.2 | 0.00 | 1.19 | 1.19 | 96 | 1011.6 |
| 20260906001955 | 23 | 82 | 1.6 | 1.6 | 0.00 | 1.19 | 1.19 | 96 | 1011.5 |
| 20260906001452 | 24 | 343 | 0.0 | 3.2 | 0.00 | 1.19 | 1.19 | 96 | 1011.4 |
| 20260906000946 | 24 | 282 | 3.2 | 3.2 | 0.00 | 1.19 | 1.19 | 95 | 1011.4 |
| 20260906000442 | 24 | 352 | 1.6 | 3.2 | 0.00 | 1.19 | 1.19 | 95 | 1011.2 |
| 20260905235942 | 24 | 57 | 1.6 | 1.6 | 0.00 | 1.19 | 1.19 | 95 | 1011.0 |
| 20260905235442 | 24 | 50 | 0.0 | 0.0 | 0.00 | 1.19 | 1.19 | 94 | 1011.4 |
| 20260905234937 | 25 | 62 | 1.6 | 3.2 | 0.00 | 1.19 | 1.19 | 94 | 1011.1 |
| 20260905234433 | 25 | 113 | 0.0 | 0.0 | 0.00 | 1.19 | 1.19 | 93 | 1011.0 |
| 20260905233932 | 25 | 142 | 0.0 | 0.0 | 0.00 | 1.19 | 1.19 | 93 | 1011.0 |
| 20260905233428 | 25 | 299 | 0.0 | 0.0 | 0.00 | 1.19 | 1.19 | 91 | 1011.1 |
| 20260905232926 | 25 | 321 | 0.0 | 1.6 | 0.00 | 1.19 | 1.19 | 91 | 1011.1 |
| 20260905232423 | 25 | 269 | 1.6 | 3.2 | 0.00 | 1.19 | 1.19 | 90 | 1011.1 |
| 20260905231918 | 25 | 329 | 0.0 | 0.0 | 0.00 | 1.19 | 1.19 | 90 | 1011.1 |
| 20260905231414 | 25 | 304 | 0.0 | 1.6 | 0.00 | 1.19 | 1.19 | 89 | 1011.1 |
| 20260905230911 | 25 | 230 | 0.0 | 1.6 | 0.00 | 1.19 | 1.19 | 88 | 1011.1 |
| 20260905230408 | 25 | 284 | 0.0 | 0.0 | 0.00 | 1.19 | 1.19 | 89 | 1011.0 |
| 20260905225907 | 25 | 154 | 1.6 | 3.2 | 0.00 | 1.19 | 1.19 | 89 | 1011.0 |
| 20260905225403 | 25 | 150 | 0.0 | 0.0 | 0.00 | 1.19 | 1.19 | 89 | 1011.0 |
| 20260905224857 | 26 | 154 | 0.0 | 0.0 | 0.00 | 1.19 | 1.19 | 88 | 1011.0 |
| 20260905224354 | 26 | 89 | 0.0 | 0.0 | 0.00 | 1.19 | 1.19 | 86 | 1010.9 |
| 20260905223854 | 26 | 278 | 1.6 | 3.2 | 0.00 | 1.19 | 1.19 | 87 | 1010.7 |
| 20260905223352 | 26 | 217 | 0.0 | 0.0 | 0.00 | 1.19 | 1.19 | 86 | 1010.8 |
| 20260905222851 | 26 | 242 | 0.0 | 0.0 | 0.00 | 1.19 | 1.19 | 83 | 1010.8 |
| 20260905222350 | 26 | 269 | 0.0 | 1.6 | 0.00 | 1.19 | 1.19 | 80 | 1010.8 |
| 20260905221847 | 26 | 246 | 0.0 | 0.0 | 0.00 | 1.19 | 1.19 | 83 | 1010.9 |
| 20260905221343 | 26 | 166 | 0.0 | 0.0 | 0.00 | 1.19 | 1.19 | 82 | 1010.9 |
| 20260905220838 | 26 | 162 | 0.0 | 1.6 | 0.00 | 1.19 | 1.19 | 86 | 1011.0 |
| 20260905220335 | 26 | 142 | 0.0 | 1.6 | 0.00 | 1.19 | 1.19 | 83 | 1011.1 |
| 20260905215834 | 26 | 230 | 0.0 | 1.6 | 0.00 | 1.19 | 1.19 | 81 | 1011.2 |
| 20260905215330 | 27 | 252 | 0.0 | 1.6 | 0.00 | 1.19 | 1.19 | 81 | 1011.1 |
| 20260905214826 | 27 | 175 | 0.0 | 0.0 | 0.00 | 1.19 | 1.19 | 80 | 1011.1 |
| 20260905214321 | 27 | 288 | 0.0 | 1.6 | 0.00 | 1.19 | 1.19 | 81 | 1011.5 |
| 20260905213816 | 27 | 172 | 0.0 | 3.2 | 0.00 | 1.19 | 1.19 | 82 | 1011.4 |
| 20260905213312 | 27 | 209 | 0.0 | 1.6 | 0.00 | 1.19 | 1.19 | 82 | 1011.4 |
| 20260905212812 | 27 | 275 | 1.6 | 3.2 | 0.00 | 1.19 | 1.19 | 82 | 1011.9 |
| 20260905212313 | 27 | 318 | 3.2 | 3.2 | 0.00 | 1.19 | 1.19 | 83 | 1011.7 |
| 20260905211813 | 27 | 297 | 0.0 | 1.6 | 0.00 | 1.19 | 1.19 | 81 | 1011.6 |
| 20260905211308 | 27 | 310 | 0.0 | 1.6 | 0.00 | 1.19 | 1.19 | 86 | 1012.1 |
| 20260905210804 | 26 | 238 | 0.0 | 0.0 | 0.00 | 1.19 | 1.19 | 86 | 1012.1 |
| 20260905210304 | 26 | 176 | 0.0 | 0.0 | 0.00 | 1.19 | 1.19 | 84 | 1011.9 |
| 20260905205803 | 27 | 217 | 0.0 | 0.0 | 0.00 | 1.19 | 1.19 | 81 | 1011.7 |
| 20260905205257 | 27 | 217 | 0.0 | 1.6 | 0.00 | 1.19 | 1.19 | 84 | 1011.9 |
| 20260905204757 | 27 | 310 | 0.0 | 1.6 | 0.00 | 1.19 | 1.19 | 78 | 1012.3 |
| 20260905204253 | 27 | 279 | 1.6 | 3.2 | 0.00 | 1.19 | 1.19 | 81 | 1012.3 |
| 20260905203752 | 27 | 211 | 0.0 | 3.2 | 0.00 | 1.19 | 1.19 | 84 | 1012.1 |
| 20260905203248 | 27 | 286 | 1.6 | 1.6 | 0.00 | 1.19 | 1.19 | 84 | 1012.2 |
| 20260905202743 | 26 | 179 | 0.0 | 6.4 | 0.00 | 1.19 | 1.19 | 80 | 1012.5 |
| 20260905202238 | 26 | 212 | 3.2 | 3.2 | 0.00 | 1.19 | 1.19 | 81 | 1012.0 |
| 20260905201733 | 26 | 244 | 1.6 | 4.8 | 0.00 | 1.19 | 1.19 | 83 | 1012.1 |
| 20260905201229 | 27 | 285 | 3.2 | 3.2 | 0.00 | 1.19 | 1.19 | 83 | 1012.5 |
| 20260905200723 | 26 | 249 | 1.6 | 3.2 | 0.00 | 1.19 | 1.19 | 82 | 1012.5 |
| 20260905200219 | 26 | 347 | 3.2 | 3.2 | 0.00 | 1.19 | 1.19 | 86 | 1012.4 |
| 20260905195717 | 25 | 20 | 3.2 | 4.8 | 0.00 | 1.19 | 1.19 | 88 | 1012.6 |
| 20260905195212 | 24 | 57 | 3.2 | 4.8 | 0.00 | 1.19 | 1.19 | 91 | 1012.5 |
| 20260905194707 | 23 | 325 | 3.2 | 3.2 | 0.00 | 1.19 | 1.19 | 95 | 1012.1 |
| 20260905194207 | 23 | 295 | 0.0 | 3.2 | 0.00 | 1.19 | 1.19 | 96 | 1012.2 |
| 20260905193701 | 23 | 317 | 4.8 | 4.8 | 0.00 | 1.19 | 1.19 | 98 | 1011.7 |
| 20260905193157 | 22 | 291 | 4.8 | 4.8 | 0.00 | 1.19 | 1.19 | 97 | 1012.3 |
| 20260905192652 | 22 | 323 | 3.2 | 3.2 | 0.00 | 1.19 | 1.19 | 98 | 1012.7 |
| 20260905192149 | 21 | 253 | 1.6 | 4.8 | 0.00 | 1.19 | 1.19 | 97 | 1012.6 |
| 20260905191648 | 21 | 317 | 3.2 | 3.2 | 0.00 | 1.19 | 1.19 | 97 | 1012.6 |
| 20260905191146 | 21 | 300 | 3.2 | 3.2 | 0.05 | 1.19 | 1.19 | 96 | 1012.6 |
| 20260905190644 | 21 | 323 | 1.6 | 3.2 | 0.05 | 1.19 | 1.19 | 96 | 1012.7 |
| 20260905190144 | 21 | 230 | 0.0 | 3.2 | 0.05 | 1.19 | 1.19 | 96 | 1012.6 |
| 20260905185643 | 21 | 274 | 1.6 | 3.2 | 0.30 | 1.19 | 1.19 | 95 | 1013.3 |
| 20260905185138 | 21 | 282 | 0.0 | 1.6 | 1.32 | 1.17 | 1.17 | 95 | 1014.0 |
| 20260905184637 | 21 | 329 | 1.6 | 11.3 | 1.75 | 1.14 | 1.14 | 92 | 1014.7 |
| 20260905184136 | 22 | 295 | 6.4 | 19.3 | 2.77 | 0.94 | 0.94 | 92 | 1015.5 |
| 20260905183636 | 22 | 22 | 14.5 | 24.1 | 3.48 | 0.84 | 0.84 | 91 | 1015.2 |
| 20260905183131 | 23 | 38 | 14.5 | 17.7 | 1.98 | 0.43 | 0.43 | 87 | 1014.4 |
| 20260905182631 | 26 | 325 | 9.7 | 20.9 | 1.14 | 0.23 | 0.23 | 80 | 1013.8 |
| 20260905182131 | 27 | 0 | 3.2 | 6.4 | 0.48 | 0.10 | 0.10 | 84 | 1013.3 |
| 20260905181626 | 29 | 356 | 3.2 | 6.4 | 0.23 | 0.05 | 0.05 | 79 | 1012.6 |
| 20260905181125 | 31 | 273 | 1.6 | 1.6 | 0.05 | 0.00 | 0.00 | 74 | 1012.2 |
| 20260905180620 | 32 | 286 | 0.0 | 3.2 | 0.00 | 0.00 | 0.00 | 68 | 1012.5 |
| 20260905180115 | 32 | 347 | 0.0 | 1.6 | 0.00 | 0.00 | 0.00 | 65 | 1012.7 |
| 20260905175614 | 33 | 344 | 1.6 | 3.2 | 0.00 | 0.00 | 0.00 | 59 | 1012.9 |
| 20260905175109 | 33 | 185 | 0.0 | 3.2 | 0.00 | 0.00 | 0.00 | 59 | 1012.8 |
| 20260905174605 | 34 | 316 | 3.2 | 3.2 | 0.00 | 0.00 | 0.00 | 53 | 1012.6 |
| 20260905174101 | 34 | 237 | 1.6 | 3.2 | 0.00 | 0.00 | 0.00 | 58 | 1012.8 |
| 20260905173557 | 35 | 282 | 6.4 | 6.4 | 0.00 | 0.00 | 0.00 | 53 | 1013.1 |
| 20260905173052 | 35 | 341 | 3.2 | 4.8 | 0.00 | 0.00 | 0.00 | 53 | 1013.1 |
| 20260905172550 | 35 | 105 | 0.0 | 4.8 | 0.00 | 0.00 | 0.00 | 51 | 1012.9 |
| 20260905172046 | 35 | 129 | 0.0 | 3.2 | 0.00 | 0.00 | 0.00 | 53 | 1013.3 |
| 20260905171542 | 35 | 242 | 3.2 | 4.8 | 0.00 | 0.00 | 0.00 | 55 | 1013.1 |
| 20260905171038 | 35 | 3 | 3.2 | 6.4 | 0.00 | 0.00 | 0.00 | 53 | 1013.4 |
| 20260905170535 | 35 | 345 | 1.6 | 8.0 | 0.00 | 0.00 | 0.00 | 52 | 1013.2 |
| 20260905170030 | 35 | 325 | 0.0 | 8.0 | 0.00 | 0.00 | 0.00 | 58 | 1013.4 |
| 20260905165525 | 35 | 180 | 0.0 | 6.4 | 0.00 | 0.00 | 0.00 | 54 | 1013.3 |
| 20260905165020 | 35 | 51 | 0.0 | 3.2 | 0.00 | 0.00 | 0.00 | 54 | 1013.4 |
| 20260905164520 | 35 | 242 | 3.2 | 4.8 | 0.00 | 0.00 | 0.00 | 54 | 1013.5 |
| 20260905164015 | 35 | 359 | 3.2 | 4.8 | 0.00 | 0.00 | 0.00 | 55 | 1013.5 |
| 20260905163511 | 35 | 331 | 3.2 | 4.8 | 0.00 | 0.00 | 0.00 | 57 | 1013.6 |
| 20260905163006 | 34 | 309 | 0.0 | 4.8 | 0.00 | 0.00 | 0.00 | 57 | 1013.8 |
| 20260905162502 | 35 | 190 | 0.0 | 3.2 | 0.00 | 0.00 | 0.00 | 57 | 1013.7 |
| 20260905161957 | 34 | 304 | 1.6 | 3.2 | 0.00 | 0.00 | 0.00 | 58 | 1013.7 |
| 20260905161456 | 34 | 251 | 1.6 | 6.4 | 0.00 | 0.00 | 0.00 | 59 | 1013.7 |
| 20260905160954 | 35 | 231 | 0.0 | 3.2 | 0.00 | 0.00 | 0.00 | 56 | 1014.0 |
| 20260905160448 | 35 | 89 | 0.0 | 3.2 | 0.00 | 0.00 | 0.00 | 56 | 1013.8 |
| 20260905155947 | 34 | 246 | 3.2 | 3.2 | 0.00 | 0.00 | 0.00 | 59 | 1013.7 |
| 20260905155443 | 33 | 287 | 0.0 | 3.2 | 0.00 | 0.00 | 0.00 | 60 | 1013.8 |
| 20260905154941 | 35 | 151 | 4.8 | 4.8 | 0.00 | 0.00 | 0.00 | 56 | 1014.0 |
| 20260905154436 | 34 | 252 | 0.0 | 3.2 | 0.00 | 0.00 | 0.00 | 57 | 1013.8 |
| 20260905153932 | 34 | 26 | 0.0 | 3.2 | 0.00 | 0.00 | 0.00 | 59 | 1013.7 |
| 20260905153428 | 34 | 103 | 0.0 | 3.2 | 0.00 | 0.00 | 0.00 | 57 | 1013.9 |
| 20260905152927 | 34 | 0 | 3.2 | 3.2 | 0.00 | 0.00 | 0.00 | 57 | 1013.8 |
| 20260905152427 | 34 | 315 | 0.0 | 3.2 | 0.00 | 0.00 | 0.00 | 59 | 1013.8 |
| 20260905151922 | 34 | 253 | 3.2 | 3.2 | 0.00 | 0.00 | 0.00 | 60 | 1013.6 |
| 20260905151418 | 33 | 263 | 1.6 | 3.2 | 0.00 | 0.00 | 0.00 | 60 | 1014.0 |
| 20260905150918 | 33 | 309 | 0.0 | 3.2 | 0.00 | 0.00 | 0.00 | 62 | 1013.9 |
| 20260905150413 | 33 | 62 | 0.0 | 4.8 | 0.00 | 0.00 | 0.00 | 59 | 1013.7 |
| 20260905145909 | 33 | 300 | 0.0 | 4.8 | 0.00 | 0.00 | 0.00 | 62 | 1013.7 |
| 20260905145404 | 33 | 176 | 3.2 | 3.2 | 0.00 | 0.00 | 0.00 | 59 | 1014.0 |
| 20260905144903 | 33 | 287 | 3.2 | 3.2 | 0.00 | 0.00 | 0.00 | 62 | 1013.8 |
| 20260905144359 | 32 | 19 | 0.0 | 3.2 | 0.00 | 0.00 | 0.00 | 63 | 1013.8 |
| 20260905143858 | 32 | 251 | 1.6 | 1.6 | 0.00 | 0.00 | 0.00 | 65 | 1013.9 |
| 20260905143352 | 32 | 5 | 3.2 | 6.4 | 0.00 | 0.00 | 0.00 | 62 | 1013.9 |
| 20260905142851 | 32 | 306 | 0.0 | 1.6 | 0.00 | 0.00 | 0.00 | 66 | 1013.8 |
| 20260905142350 | 32 | 339 | 3.2 | 4.8 | 0.00 | 0.00 | 0.00 | 63 | 1013.9 |
| 20260905141846 | 31 | 69 | 1.6 | 3.2 | 0.00 | 0.00 | 0.00 | 66 | 1013.8 |
| 20260905141341 | 31 | 317 | 1.6 | 3.2 | 0.00 | 0.00 | 0.00 | 69 | 1013.8 |
| 20260905140838 | 31 | 269 | 0.0 | 1.6 | 0.00 | 0.00 | 0.00 | 68 | 1013.9 |
| 20260905140337 | 31 | 276 | 0.0 | 3.2 | 0.00 | 0.00 | 0.00 | 68 | 1013.6 |
| 20260905135836 | 31 | 122 | 0.0 | 0.0 | 0.00 | 0.00 | 0.00 | 69 | 1013.7 |
| 20260905135333 | 31 | 320 | 0.0 | 1.6 | 0.00 | 0.00 | 0.00 | 71 | 1013.8 |
| 20260905134828 | 30 | 139 | 0.0 | 0.0 | 0.00 | 0.00 | 0.00 | 71 | 1013.8 |
| 20260905134326 | 30 | 140 | 0.0 | 3.2 | 0.00 | 0.00 | 0.00 | 72 | 1013.9 |
| 20260905133826 | 28 | 217 | 0.0 | 1.6 | 0.00 | 0.00 | 0.00 | 76 | 1014.0 |
| 20260905133321 | 28 | 309 | 0.0 | 3.2 | 0.00 | 0.00 | 0.00 | 77 | 1014.1 |
| 20260905132821 | 28 | 6 | 1.6 | 3.2 | 0.00 | 0.00 | 0.00 | 77 | 1014.2 |
| 20260905132317 | 27 | 89 | 0.0 | 4.8 | 0.00 | 0.00 | 0.00 | 81 | 1014.3 |
| 20260905131816 | 27 | 8 | 1.6 | 3.2 | 0.00 | 0.00 | 0.00 | 82 | 1014.3 |
| 20260905131312 | 26 | 37 | 1.6 | 3.2 | 0.00 | 0.00 | 0.00 | 84 | 1014.2 |
| 20260905130808 | 26 | 12 | 3.2 | 4.8 | 0.00 | 0.00 | 0.00 | 85 | 1014.1 |
| 20260905130306 | 26 | 347 | 3.2 | 3.2 | 0.00 | 0.00 | 0.00 | 85 | 1014.2 |
| 20260905125802 | 25 | 347 | 1.6 | 3.2 | 0.00 | 0.00 | 0.00 | 85 | 1014.4 |
| 20260905125256 | 25 | 57 | 1.6 | 3.2 | 0.00 | 0.00 | 0.00 | 91 | 1014.2 |
| 20260905124753 | 24 | 37 | 0.0 | 0.0 | 0.00 | 0.00 | 0.00 | 93 | 1014.3 |
| 20260905124248 | 23 | 7 | 0.0 | 1.6 | 0.00 | 0.00 | 0.00 | 94 | 1014.2 |
| 20260905123743 | 23 | 40 | 0.0 | 1.6 | 0.00 | 0.00 | 0.00 | 95 | 1014.1 |
| 20260905123240 | 23 | 18 | 0.0 | 3.2 | 0.00 | 0.00 | 0.00 | 96 | 1014.2 |
| 20260905122735 | 23 | 31 | 0.0 | 1.6 | 0.00 | 0.00 | 0.00 | 96 | 1013.9 |
| 20260905122234 | 23 | 48 | 1.6 | 1.6 | 0.00 | 0.00 | 0.00 | 97 | 1014.0 |
| 20260905121729 | 22 | 45 | 0.0 | 1.6 | 0.00 | 0.00 | 0.00 | 98 | 1014.0 |
| 20260905121226 | 22 | 37 | 0.0 | 0.0 | 0.00 | 0.00 | 0.00 | 98 | 1013.9 |
| 20260905120724 | 22 | 44 | 1.6 | 3.2 | 0.00 | 0.00 | 0.00 | 98 | 1013.8 |
| 20260905120219 | 22 | 38 | 0.0 | 1.6 | 0.00 | 0.00 | 0.00 | 98 | 1014.0 |
| 20260905115720 | 22 | 214 | 0.0 | 3.2 | 0.00 | 0.00 | 0.00 | 98 | 1013.9 |
| 20260905115219 | 22 | 31 | 0.0 | 3.2 | 0.00 | 0.00 | 0.00 | 98 | 1013.8 |
| 20260905114714 | 22 | 135 | 0.0 | 3.2 | 0.00 | 0.00 | 0.00 | 98 | 1013.9 |
| 20260905114212 | 22 | 56 | 1.6 | 3.2 | 0.00 | 0.00 | 0.00 | 98 | 1013.8 |
| 20260905113713 | 22 | 23 | 0.0 | 3.2 | 0.00 | 0.00 | 0.00 | 98 | 1013.5 |
| 20260905113208 | 22 | 123 | 0.0 | 3.2 | 0.00 | 0.00 | 0.00 | 98 | 1013.3 |
| 20260905112708 | 22 | 44 | 0.0 | 3.2 | 0.00 | 0.00 | 0.00 | 98 | 1013.5 |
| 20260905112204 | 22 | 82 | 0.0 | 1.6 | 0.00 | 0.00 | 0.00 | 98 | 1013.3 |
| 20260905111703 | 22 | 84 | 0.0 | 3.2 | 0.00 | 0.00 | 0.00 | 98 | 1013.2 |
| 20260905111203 | 22 | 119 | 0.0 | 3.2 | 0.00 | 0.00 | 0.00 | 98 | 1013.3 |
| 20260905110702 | 22 | 94 | 0.0 | 1.6 | 0.00 | 0.00 | 0.00 | 98 | 1013.2 |
| 20260905110157 | 22 | 164 | 0.0 | 3.2 | 0.00 | 0.00 | 0.00 | 98 | 1013.2 |
| 20260905105652 | 22 | 131 | 3.2 | 3.2 | 0.00 | 0.00 | 0.00 | 98 | 1013.1 |
| 20260905105151 | 22 | 210 | 0.0 | 3.2 | 0.00 | 0.00 | 0.00 | 98 | 1012.9 |
| 20260905104646 | 22 | 63 | 0.0 | 3.2 | 0.00 | 0.00 | 0.00 | 98 | 1012.9 |
| 20260905104142 | 22 | 80 | 1.6 | 1.6 | 0.00 | 0.00 | 0.00 | 98 | 1012.8 |
| 20260905103637 | 22 | 50 | 0.0 | 0.0 | 0.00 | 0.00 | 0.00 | 98 | 1012.7 |
| 20260905103133 | 22 | 147 | 0.0 | 0.0 | 0.00 | 0.00 | 0.00 | 98 | 1012.8 |
| 20260905102629 | 22 | 55 | 1.6 | 1.6 | 0.00 | 0.00 | 0.00 | 98 | 1012.7 |
| 20260905102125 | 22 | 38 | 0.0 | 0.0 | 0.00 | 0.00 | 0.00 | 98 | 1012.5 |
| 20260905101623 | 22 | 117 | 0.0 | 0.0 | 0.00 | 0.00 | 0.00 | 98 | 1012.7 |
| 20260905101122 | 22 | 46 | 0.0 | 1.6 | 0.00 | 0.00 | 0.00 | 98 | 1013.0 |
| 20260905100618 | 22 | 117 | 0.0 | 0.0 | 0.00 | 0.00 | 0.00 | 98 | 1012.6 |
| 20260905100113 | 22 | 117 | 0.0 | 0.0 | 0.00 | 0.00 | 0.00 | 98 | 1012.8 |
| 20260905095607 | 22 | 124 | 0.0 | 0.0 | 0.00 | 0.00 | 0.00 | 98 | 1012.6 |
| 20260905095102 | 22 | 147 | 0.0 | 0.0 | 0.00 | 0.00 | 0.00 | 98 | 1012.5 |
| 20260905094557 | 22 | 147 | 0.0 | 0.0 | 0.00 | 0.00 | 0.00 | 98 | 1012.7 |
| 20260905094057 | 22 | 62 | 0.0 | 0.0 | 0.00 | 0.00 | 0.00 | 98 | 1012.6 |
| 20260905093556 | 22 | 44 | 1.6 | 3.2 | 0.00 | 0.00 | 0.00 | 98 | 1012.6 |
| 20260905093053 | 22 | 44 | 1.6 | 3.2 | 0.00 | 0.00 | 0.00 | 98 | 1012.6 |
| 20260905092552 | 22 | 72 | 1.6 | 3.2 | 0.00 | 0.00 | 0.00 | 98 | 1012.5 |
| 20260905092049 | 22 | 31 | 0.0 | 1.6 | 0.00 | 0.00 | 0.00 | 98 | 1012.6 |
| 20260905091547 | 22 | 142 | 0.0 | 3.2 | 0.00 | 0.00 | 0.00 | 98 | 1012.7 |
| 20260905091043 | 22 | 5 | 0.0 | 3.2 | 0.00 | 0.00 | 0.00 | 98 | 1012.6 |
| 20260905090542 | 22 | 22 | 0.0 | 3.2 | 0.00 | 0.00 | 0.00 | 98 | 1012.9 |
| 20260905090038 | 22 | 61 | 0.0 | 1.6 | 0.00 | 0.00 | 0.00 | 98 | 1012.9 |
| 20260905085536 | 22 | 80 | 0.0 | 1.6 | 0.00 | 0.00 | 0.00 | 97 | 1012.8 |
| 20260905085032 | 22 | 55 | 0.0 | 0.0 | 0.00 | 0.00 | 0.00 | 97 | 1012.8 |
| 20260905084532 | 22 | 38 | 0.0 | 1.6 | 0.00 | 0.00 | 0.00 | 97 | 1013.0 |
| 20260905084027 | 22 | 64 | 1.6 | 1.6 | 0.00 | 0.00 | 0.00 | 97 | 1012.9 |
| 20260905083521 | 22 | 53 | 1.6 | 3.2 | 0.00 | 0.00 | 0.00 | 97 | 1013.1 |
| 20260905083018 | 22 | 354 | 1.6 | 1.6 | 0.00 | 0.00 | 0.00 | 97 | 1013.2 |
| 20260905082513 | 22 | 32 | 0.0 | 1.6 | 0.00 | 0.00 | 0.00 | 97 | 1013.1 |
| 20260905082009 | 23 | 333 | 0.0 | 0.0 | 0.00 | 0.00 | 0.00 | 97 | 1013.3 |
| 20260905081508 | 23 | 37 | 0.0 | 0.0 | 0.00 | 0.00 | 0.00 | 97 | 1013.3 |
| 20260905081003 | 23 | 45 | 0.0 | 1.6 | 0.00 | 0.00 | 0.00 | 97 | 1013.3 |
| 20260905080458 | 23 | 89 | 0.0 | 0.0 | 0.00 | 0.00 | 0.00 | 97 | 1013.5 |
| 20260905075956 | 23 | 63 | 0.0 | 3.2 | 0.00 | 0.00 | 0.00 | 97 | 1013.5 |
| 20260905075451 | 23 | 29 | 0.0 | 3.2 | 0.00 | 0.00 | 0.00 | 97 | 1013.3 |
| 20260905074949 | 23 | 22 | 0.0 | 3.2 | 0.00 | 0.00 | 0.00 | 97 | 1013.6 |
| 20260905074446 | 23 | 14 | 3.2 | 4.8 | 0.00 | 0.00 | 0.00 | 97 | 1013.4 |
| 20260905073941 | 23 | 344 | 1.6 | 3.2 | 0.00 | 0.00 | 0.00 | 97 | 1013.5 |
| 20260905073436 | 23 | 350 | 0.0 | 1.6 | 0.00 | 0.00 | 0.00 | 97 | 1013.6 |
| 20260905072931 | 23 | 25 | 1.6 | 3.2 | 0.00 | 0.00 | 0.00 | 97 | 1013.7 |
| 20260905072426 | 23 | 25 | 0.0 | 1.6 | 0.00 | 0.00 | 0.00 | 96 | 1013.6 |
| 20260905071922 | 23 | 14 | 1.6 | 3.2 | 0.00 | 0.00 | 0.00 | 97 | 1013.7 |
| 20260905071419 | 22 | 84 | 1.6 | 3.2 | 0.00 | 0.00 | 0.00 | 97 | 1013.6 |
| 20260905070918 | 22 | 3 | 1.6 | 3.2 | 0.00 | 0.00 | 0.00 | 96 | 1013.6 |
| 20260905070415 | 23 | 358 | 3.2 | 3.2 | 0.00 | 0.00 | 0.00 | 96 | 1013.6 |
| 20260905065914 | 23 | 9 | 1.6 | 3.2 | 0.00 | 0.00 | 0.00 | 97 | 1013.7 |
| 20260905065413 | 22 | 45 | 0.0 | 3.2 | 0.00 | 0.00 | 0.00 | 96 | 1013.6 |
| 20260905064908 | 22 | 40 | 0.0 | 3.2 | 0.00 | 0.00 | 0.00 | 96 | 1013.8 |
| 20260905064409 | 23 | 356 | 1.6 | 1.6 | 0.00 | 0.00 | 0.00 | 96 | 1014.1 |
| 20260905063908 | 23 | 51 | 0.0 | 0.0 | 0.00 | 0.00 | 0.00 | 96 | 1014.0 |
| 20260905063403 | 23 | 37 | 1.6 | 1.6 | 0.00 | 0.00 | 0.00 | 96 | 1014.0 |
| 20260905062900 | 23 | 25 | 0.0 | 0.0 | 0.00 | 0.00 | 0.00 | 96 | 1013.9 |
| 20260905062354 | 23 | 326 | 0.0 | 0.0 | 0.00 | 0.00 | 0.00 | 96 | 1014.1 |
| 20260905061849 | 23 | 62 | 0.0 | 1.6 | 0.00 | 0.00 | 0.00 | 96 | 1013.9 |
| 20260905061348 | 23 | 26 | 0.0 | 3.2 | 0.00 | 0.00 | 0.00 | 96 | 1014.0 |
| 20260905060843 | 23 | 18 | 0.0 | 1.6 | 0.00 | 0.00 | 0.00 | 96 | 1014.1 |
| 20260905060340 | 23 | 77 | 0.0 | 1.6 | 0.00 | 0.00 | 0.00 | 96 | 1014.5 |
| 20260905055839 | 23 | 22 | 1.6 | 1.6 | 0.00 | 0.00 | 0.00 | 96 | 1014.2 |
| 20260905055334 | 23 | 63 | 3.2 | 3.2 | 0.00 | 0.00 | 0.00 | 96 | 1014.3 |
| 20260905054833 | 23 | 69 | 0.0 | 3.2 | 0.00 | 0.00 | 0.00 | 96 | 1014.4 |
| 20260905054330 | 23 | 37 | 0.0 | 0.0 | 0.00 | 0.00 | 0.00 | 95 | 1014.4 |
| 20260905053829 | 23 | 33 | 0.0 | 3.2 | 0.00 | 0.00 | 0.00 | 95 | 1014.4 |
| 20260905053324 | 23 | 325 | 0.0 | 3.2 | 0.00 | 0.00 | 0.00 | 95 | 1014.2 |
| 20260905052825 | 23 | 38 | 0.0 | 3.2 | 0.00 | 0.00 | 0.00 | 95 | 1014.1 |
| 20260905052325 | 23 | 44 | 0.0 | 1.6 | 0.00 | 0.00 | 0.00 | 95 | 1014.5 |
| 20260905051824 | 23 | 8 | 0.0 | 1.6 | 0.00 | 0.00 | 0.00 | 95 | 1014.4 |
| 20260905051320 | 23 | 322 | 0.0 | 1.6 | 0.00 | 0.00 | 0.00 | 95 | 1014.6 |
| 20260905050817 | 23 | 280 | 0.0 | 1.6 | 0.00 | 0.00 | 0.00 | 95 | 1014.7 |
| 20260905050313 | 23 | 343 | 0.0 | 1.6 | 0.00 | 0.00 | 0.00 | 95 | 1014.6 |
| 20260905045808 | 23 | 357 | 3.2 | 3.2 | 0.00 | 0.00 | 0.00 | 94 | 1014.3 |
| 20260905045305 | 24 | 28 | 0.0 | 3.2 | 0.00 | 0.00 | 0.00 | 93 | 1014.4 |
| 20260905044759 | 24 | 31 | 1.6 | 1.6 | 0.00 | 0.00 | 0.00 | 93 | 1014.7 |
| 20260905044254 | 24 | 124 | 0.0 | 1.6 | 0.00 | 0.00 | 0.00 | 93 | 1014.2 |
| 20260905043752 | 24 | 142 | 0.0 | 0.0 | 0.00 | 0.00 | 0.00 | 93 | 1014.5 |
| 20260905043247 | 24 | 104 | 0.0 | 1.6 | 0.00 | 0.00 | 0.00 | 93 | 1014.5 |
| 20260905042742 | 24 | 144 | 3.2 | 3.2 | 0.00 | 0.00 | 0.00 | 93 | 1014.6 |
| 20260905042241 | 24 | 89 | 0.0 | 0.0 | 0.00 | 0.00 | 0.00 | 93 | 1014.2 |
| 20260905041737 | 24 | 69 | 3.2 | 3.2 | 0.00 | 0.00 | 0.00 | 93 | 1014.2 |
| 20260905041232 | 24 | 42 | 1.6 | 3.2 | 0.00 | 0.00 | 0.00 | 92 | 1014.2 |
| 20260905040727 | 25 | 205 | 0.0 | 0.0 | 0.00 | 0.00 | 0.00 | 92 | 1014.1 |
| 20260905040226 | 25 | 333 | 0.0 | 1.6 | 0.00 | 0.00 | 0.00 | 92 | 1014.3 |
| 20260905035726 | 25 | 224 | 0.0 | 0.0 | 0.00 | 0.00 | 0.00 | 92 | 1014.3 |
| 20260905035222 | 25 | 230 | 0.0 | 0.0 | 0.00 | 0.00 | 0.00 | 91 | 1014.2 |
| 20260905034719 | 25 | 124 | 0.0 | 0.0 | 0.00 | 0.00 | 0.00 | 92 | 1014.5 |
| 20260905034218 | 25 | 129 | 0.0 | 0.0 | 0.00 | 0.00 | 0.00 | 92 | 1014.1 |
| 20260905033717 | 25 | 37 | 0.0 | 0.0 | 0.00 | 0.00 | 0.00 | 92 | 1014.3 |
| 20260905033213 | 25 | 129 | 0.0 | 0.0 | 0.00 | 0.00 | 0.00 | 92 | 1014.2 |
| 20260905032712 | 25 | 129 | 0.0 | 0.0 | 0.00 | 0.00 | 0.00 | 92 | 1014.4 |